This is the latest recevied weather packets stored in our database for station/object KK4EQF. If no packets are shown the sender has not sent any weather packets the latest 1 day(s).
| Time | Temp. | Humidity | Pressure | Rain* | Wind** | Luminosity | Snow |
|---|---|---|---|---|---|---|---|
| 1778012480 | 27.22° C | 1% | 1014.7 hPa | 0 mm | 1.79 m/s, 247° | - | - |
| 1778012418 | 27.22° C | 1% | 1014.7 hPa | 0 mm | 1.79 m/s, 221° | - | - |
| 1778012358 | 27.22° C | 1% | 1014.8 hPa | 0 mm | 1.79 m/s, 257° | - | - |
| 1778012299 | 27.22° C | 1% | 1014.7 hPa | 0 mm | 1.79 m/s, 213° | - | - |
| 1778012239 | 27.22° C | 1% | 1014.9 hPa | 0 mm | 1.79 m/s, 228° | - | - |
| 1778012176 | 27.22° C | 1% | 1014.7 hPa | 0 mm | 1.79 m/s, 186° | - | - |
| 1778012111 | 27.22° C | 1% | 1014.8 hPa | 0 mm | 1.79 m/s, 195° | - | - |
| 1778012050 | 27.22° C | 1% | 1014.8 hPa | 0 mm | 1.79 m/s, 216° | - | - |
| 1778011991 | 27.22° C | 1% | 1014.8 hPa | 0 mm | 1.79 m/s, 277° | - | - |
| 1778011930 | 27.22° C | 1% | 1014.8 hPa | 0 mm | 1.79 m/s, 210° | - | - |
| 1778011870 | 27.22° C | 1% | 1014.9 hPa | 0 mm | 1.79 m/s, 232° | - | - |
| 1778011802 | 27.22° C | 1% | 1014.8 hPa | 0 mm | 1.34 m/s, 254° | - | - |
| 1778011742 | 27.22° C | 1% | 1014.9 hPa | 0 mm | 1.34 m/s, 217° | - | - |
| 1778011682 | 27.22° C | 1% | 1014.8 hPa | 0 mm | 1.34 m/s, 252° | - | - |
| 1778011622 | 27.22° C | 1% | 1014.9 hPa | 0 mm | 1.34 m/s, 248° | - | - |
| 1778011564 | 27.22° C | 1% | 1014.9 hPa | 0 mm | 1.34 m/s, 202° | - | - |
| 1778011496 | 27.22° C | 1% | 1014.8 hPa | 0 mm | 1.34 m/s, 240° | - | - |
| 1778011439 | 27.22° C | 1% | 1014.8 hPa | 0 mm | 1.34 m/s, 184° | - | - |
| 1778011377 | 27.22° C | 1% | 1014.8 hPa | 0 mm | 1.34 m/s, 229° | - | - |
| 1778011318 | 27.22° C | 1% | 1014.8 hPa | 0 mm | 1.34 m/s, 261° | - | - |
| 1778011261 | 27.22° C | 1% | 1014.8 hPa | 0 mm | 1.34 m/s, 226° | - | - |
| 1778011192 | 27.22° C | 1% | 1014.8 hPa | 0 mm | 1.34 m/s, 238° | - | - |
| 1778011130 | 27.22° C | 1% | 1014.9 hPa | 0 mm | 1.34 m/s, 199° | - | - |
| 1778011070 | 27.22° C | 1% | 1014.9 hPa | 0 mm | 1.34 m/s, 194° | - | - |
| 1778011010 | 27.22° C | 1% | 1014.9 hPa | 0 mm | 1.79 m/s, 203° | - | - |
* Rain latest hour (hover to see other rain measurements)
** Current wind speed in m/s (hover to see current wind gust speed)